2021-048B (48832 NORAD) Tracking and Keplerian Element Data

This shows tracking and keplerian element data for the satellite.

Feedback or suggestion? Click here.




ElementValue
Catalog48832
Name2021-048B
Epoch Orbit15
Epoch Day155.73590201
Epoch Year2021
RAAN44.7823
Inclination51.7067
Eccentricity0.007791
Argument of Perigee180.2116
Mean Anonmoly179.8584
Mean Motion16.16912723
Decay Rate0.99940241
L11 48832U 21048B 21155.73590201 .99940241 10591-4 34345-1 0 9999
L22 48832 51.7067 44.7823 0077910 180.2116 179.8584 16.16912723 150

Live tracking and technical data element details for 2021-048B (NORAD 48832). 2021-048B can be tracked NOW for your location showing map with azimuth and elevation plus other details from your city location.

Track the satellite on the map from your city or location and see movement details for azimuth, elevation, latitude, longitude, range, height, and movement on the map or in text.







IsCatalogInMostPopularTable: catalog: 48832, numindb: 14
Update: records affected: 1



GetName: 48832 2021-048B

Hit Count: updated at: Tue, 03 Aug 2021 21:37:59 GMT